Time,TemperatureF,DewpointF,PressureIn,WindDirection,WindDirectionDegrees,WindSpeedMPH,WindSpeedGustMPH,Humidity,HourlyPrecipIn,Conditions,Clouds,dailyrainin,SoftwareType,DateUTC
2013-01-10 00:00:00,70.0,57.7,30.40,ENE,67,2.0,12.0,65,0.00,,,0.00,Weather View 32 v70,2013-01-10 05:00:00,
2013-01-10 00:05:00,70.0,57.7,30.40,East,90,7.0,12.0,65,0.00,,,0.00,Weather View 32 v70,2013-01-10 05:05:00,
2013-01-10 00:10:00,70.0,57.2,30.41,ENE,67,3.0,12.0,64,0.00,,,0.00,Weather View 32 v70,2013-01-10 05:10:00,
2013-01-10 00:15:00,70.0,56.8,30.40,ENE,67,4.0,12.0,63,0.00,,,0.00,Weather View 32 v70,2013-01-10 05:15:00,
2013-01-10 00:20:00,70.0,56.8,30.40,East,90,5.0,10.0,63,0.00,,,0.00,Weather View 32 v70,2013-01-10 05:20:00,
2013-01-10 00:25:00,70.0,56.3,30.40,East,90,5.0,10.0,62,0.00,,,0.00,Weather View 32 v70,2013-01-10 05:25:00,
2013-01-10 00:30:00,70.0,56.3,30.40,East,90,1.0,10.0,62,0.00,,,0.00,Weather View 32 v70,2013-01-10 05:30:00,
2013-01-10 00:35:00,70.0,55.9,30.40,ENE,67,5.0,11.0,61,0.00,,,0.00,Weather View 32 v70,2013-01-10 05:35:00,
2013-01-10 00:45:00,69.0,54.5,30.40,East,90,5.0,11.0,60,0.00,,,0.00,Weather View 32 v70,2013-01-10 05:45:00,
2013-01-10 00:50:00,69.0,54.5,30.40,ENE,67,6.0,11.0,60,0.00,,,0.00,Weather View 32 v70,2013-01-10 05:50:00,
2013-01-10 00:55:00,69.0,54.5,30.40,ENE,67,3.0,11.0,60,0.00,,,0.00,Weather View 32 v70,2013-01-10 05:55:00,
2013-01-10 01:00:00,69.0,53.6,30.40,ENE,67,4.0,11.0,58,0.00,,,0.00,Weather View 32 v70,2013-01-10 06:00:00,
2013-01-10 01:05:00,69.0,53.6,30.40,East,90,6.0,11.0,58,0.00,,,0.00,Weather View 32 v70,2013-01-10 06:05:00,
2013-01-10 01:10:00,69.0,53.6,30.40,ENE,67,8.0,11.0,58,0.00,,,0.00,Weather View 32 v70,2013-01-10 06:10:00,
2013-01-10 01:15:00,69.0,53.1,30.40,ENE,67,6.0,11.0,57,0.00,,,0.00,Weather View 32 v70,2013-01-10 06:15:00,
2013-01-10 01:20:00,69.0,53.1,30.39,ENE,67,3.0,11.0,57,0.00,,,0.00,Weather View 32 v70,2013-01-10 06:20:00,
2013-01-10 01:25:00,69.0,53.1,30.40,ENE,67,2.0,11.0,57,0.00,,,0.00,Weather View 32 v70,2013-01-10 06:25:00,
2013-01-10 01:30:00,69.0,53.1,30.40,East,90,10.0,12.0,57,0.00,,,0.00,Weather View 32 v70,2013-01-10 06:30:00,
2013-01-10 01:35:00,69.0,53.1,30.40,ENE,67,7.0,12.0,57,0.00,,,0.00,Weather View 32 v70,2013-01-10 06:35:00,
2013-01-10 01:40:00,69.0,53.1,30.39,ENE,67,5.0,12.0,57,0.00,,,0.00,Weather View 32 v70,2013-01-10 06:40:00,
2013-01-10 01:45:00,69.0,53.1,30.39,ENE,67,9.0,12.0,57,0.00,,,0.00,Weather View 32 v70,2013-01-10 06:45:00,
2013-01-10 01:50:00,69.0,52.6,30.39,ENE,67,7.0,12.0,56,0.00,,,0.00,Weather View 32 v70,2013-01-10 06:50:00,
2013-01-10 02:00:00,69.0,52.6,30.39,East,90,4.0,12.0,56,0.00,,,0.00,Weather View 32 v70,2013-01-10 07:00:00,
2013-01-10 02:05:00,69.0,52.6,30.39,ENE,67,8.0,12.0,56,0.00,,,0.00,Weather View 32 v70,2013-01-10 07:05:00,
2013-01-10 02:10:00,69.0,52.6,30.38,East,90,4.0,12.0,56,0.00,,,0.00,Weather View 32 v70,2013-01-10 07:10:00,
2013-01-10 02:15:00,69.0,52.6,30.38,ENE,67,9.0,12.0,56,0.00,,,0.00,Weather View 32 v70,2013-01-10 07:15:00,
2013-01-10 02:20:00,69.0,52.6,30.38,ENE,67,9.0,14.0,56,0.00,,,0.00,Weather View 32 v70,2013-01-10 07:20:00,
2013-01-10 02:25:00,69.0,53.1,30.38,ENE,67,4.0,14.0,57,0.00,,,0.00,Weather View 32 v70,2013-01-10 07:25:00,
2013-01-10 02:30:00,69.0,53.6,30.38,ENE,67,6.0,14.0,58,0.00,,,0.00,Weather View 32 v70,2013-01-10 07:30:00,
2013-01-10 02:35:00,69.0,54.0,30.38,ENE,67,12.0,14.0,59,0.00,,,0.00,Weather View 32 v70,2013-01-10 07:35:00,
2013-01-10 02:40:00,69.0,54.5,30.38,ENE,67,7.0,15.0,60,0.00,,,0.00,Weather View 32 v70,2013-01-10 07:40:00,
2013-01-10 02:45:00,69.0,54.5,30.38,ENE,67,12.0,15.0,60,0.00,,,0.00,Weather View 32 v70,2013-01-10 07:45:00,
2013-01-10 02:50:00,69.0,54.5,30.38,ENE,67,3.0,15.0,60,0.00,,,0.00,Weather View 32 v70,2013-01-10 07:50:00,
2013-01-10 02:55:00,69.0,54.5,30.38,ENE,67,7.0,15.0,60,0.00,,,0.00,Weather View 32 v70,2013-01-10 07:55:00,
2013-01-10 03:00:00,69.0,54.5,30.38,ENE,67,9.0,15.0,60,0.00,,,0.00,Weather View 32 v70,2013-01-10 08:00:00,
2013-01-10 03:05:00,69.0,55.0,30.37,East,90,4.0,15.0,61,0.00,,,0.00,Weather View 32 v70,2013-01-10 08:05:00,
2013-01-10 03:10:00,69.0,55.0,30.37,East,90,12.0,15.0,61,0.00,,,0.00,Weather View 32 v70,2013-01-10 08:10:00,
2013-01-10 03:18:00,69.0,55.0,30.37,ENE,67,9.0,15.0,61,0.00,,,0.00,Weather View 32 v70,2013-01-10 08:18:00,
2013-01-10 03:25:00,69.0,55.0,30.37,ENE,67,6.0,15.0,61,0.00,,,0.00,Weather View 32 v70,2013-01-10 08:25:00,
2013-01-10 03:30:00,69.0,55.0,30.37,East,90,2.0,15.0,61,0.00,,,0.00,Weather View 32 v70,2013-01-10 08:30:00,
2013-01-10 03:35:00,69.0,55.0,30.37,East,90,12.0,15.0,61,0.00,,,0.00,Weather View 32 v70,2013-01-10 08:35:00,
2013-01-10 03:40:00,69.0,55.0,30.37,ENE,67,2.0,15.0,61,0.00,,,0.00,Weather View 32 v70,2013-01-10 08:40:00,
2013-01-10 03:45:00,69.0,55.0,30.37,East,90,9.0,15.0,61,0.00,,,0.00,Weather View 32 v70,2013-01-10 08:45:00,
2013-01-10 03:50:00,69.0,55.0,30.37,SSE,157,2.0,15.0,61,0.00,,,0.00,Weather View 32 v70,2013-01-10 08:50:00,
2013-01-10 03:55:00,69.0,55.0,30.37,East,90,7.0,15.0,61,0.00,,,0.00,Weather View 32 v70,2013-01-10 08:55:00,
2013-01-10 04:00:00,69.0,54.5,30.37,East,90,5.0,15.0,60,0.00,,,0.00,Weather View 32 v70,2013-01-10 09:00:00,
2013-01-10 04:05:00,69.0,54.5,30.37,East,90,3.0,15.0,60,0.00,,,0.00,Weather View 32 v70,2013-01-10 09:05:00,
2013-01-10 04:10:00,69.0,54.5,30.37,East,90,6.0,15.0,60,0.00,,,0.00,Weather View 32 v70,2013-01-10 09:10:00,
2013-01-10 04:15:00,69.0,54.5,30.37,East,90,6.0,15.0,60,0.00,,,0.00,Weather View 32 v70,2013-01-10 09:15:00,
2013-01-10 04:20:00,69.0,54.0,30.37,East,90,2.0,15.0,59,0.00,,,0.00,Weather View 32 v70,2013-01-10 09:20:00,
2013-01-10 04:25:00,69.0,54.0,30.37,ENE,67,2.0,15.0,59,0.00,,,0.00,Weather View 32 v70,2013-01-10 09:25:00,
2013-01-10 04:35:00,68.0,52.6,30.37,ENE,67,1.0,14.0,58,0.00,,,0.00,Weather View 32 v70,2013-01-10 09:35:00,
2013-01-10 04:40:00,68.0,52.6,30.36,East,90,6.0,13.0,58,0.00,,,0.00,Weather View 32 v70,2013-01-10 09:40:00,
2013-01-10 04:45:00,68.0,52.2,30.36,East,90,5.0,13.0,57,0.00,,,0.00,Weather View 32 v70,2013-01-10 09:45:00,
2013-01-10 04:50:00,68.0,51.7,30.36,ENE,67,5.0,13.0,56,0.00,,,0.00,Weather View 32 v70,2013-01-10 09:50:00,
2013-01-10 04:55:00,68.0,51.7,30.37,ENE,67,0.0,13.0,56,0.00,,,0.00,Weather View 32 v70,2013-01-10 09:55:00,
2013-01-10 05:05:00,68.0,51.7,30.37,ENE,67,4.0,13.0,56,0.00,,,0.00,Weather View 32 v70,2013-01-10 10:05:00,
2013-01-10 05:10:00,68.0,51.7,30.37,East,90,3.0,13.0,56,0.00,,,0.00,Weather View 32 v70,2013-01-10 10:10:00,
2013-01-10 05:15:00,68.0,51.7,30.37,ENE,67,0.0,13.0,56,0.00,,,0.00,Weather View 32 v70,2013-01-10 10:15:00,
2013-01-10 05:20:00,68.0,51.2,30.37,East,90,5.0,11.0,55,0.00,,,0.00,Weather View 32 v70,2013-01-10 10:20:00,
2013-01-10 05:25:00,68.0,51.2,30.37,ENE,67,7.0,11.0,55,0.00,,,0.00,Weather View 32 v70,2013-01-10 10:25:00,
2013-01-10 05:30:00,68.0,51.2,30.37,East,90,2.0,11.0,55,0.00,,,0.00,Weather View 32 v70,2013-01-10 10:30:00,
2013-01-10 05:35:00,68.0,51.2,30.37,ENE,67,2.0,11.0,55,0.00,,,0.00,Weather View 32 v70,2013-01-10 10:35:00,
2013-01-10 05:45:00,68.0,51.2,30.37,ENE,67,5.0,11.0,55,0.00,,,0.00,Weather View 32 v70,2013-01-10 10:45:00,
2013-01-10 05:50:00,68.0,50.7,30.37,East,90,4.0,10.0,54,0.00,,,0.00,Weather View 32 v70,2013-01-10 10:50:00,
2013-01-10 05:55:00,68.0,50.7,30.37,East,90,4.0,10.0,54,0.00,,,0.00,Weather View 32 v70,2013-01-10 10:55:00,
2013-01-10 06:00:00,68.0,50.7,30.37,ENE,67,6.0,10.0,54,0.00,,,0.00,Weather View 32 v70,2013-01-10 11:00:00,
2013-01-10 06:05:00,68.0,50.2,30.37,East,90,5.0,10.0,53,0.00,,,0.00,Weather View 32 v70,2013-01-10 11:05:00,
2013-01-10 06:10:00,68.0,50.2,30.37,East,90,4.0,10.0,53,0.00,,,0.00,Weather View 32 v70,2013-01-10 11:10:00,
2013-01-10 06:20:00,68.0,50.2,30.37,East,90,8.0,10.0,53,0.00,,,0.00,Weather View 32 v70,2013-01-10 11:20:00,
2013-01-10 06:25:00,68.0,50.2,30.37,ENE,67,0.0,9.0,53,0.00,,,0.00,Weather View 32 v70,2013-01-10 11:25:00,
2013-01-10 06:30:00,68.0,50.2,30.37,ENE,67,4.0,9.0,53,0.00,,,0.00,Weather View 32 v70,2013-01-10 11:30:00,
2013-01-10 06:35:00,68.0,49.7,30.37,ENE,67,3.0,9.0,52,0.00,,,0.00,Weather View 32 v70,2013-01-10 11:35:00,
2013-01-10 06:40:00,67.0,48.2,30.37,ENE,67,2.0,9.0,51,0.00,,,0.00,Weather View 32 v70,2013-01-10 11:40:00,
2013-01-10 06:45:00,67.0,48.2,30.37,ENE,67,0.0,9.0,51,0.00,,,0.00,Weather View 32 v70,2013-01-10 11:45:00,
2013-01-10 06:50:00,67.0,48.2,30.37,ENE,67,3.0,8.0,51,0.00,,,0.00,Weather View 32 v70,2013-01-10 11:50:00,
2013-01-10 06:55:00,67.0,47.7,30.38,ENE,67,0.0,8.0,50,0.00,,,0.00,Weather View 32 v70,2013-01-10 11:55:00,
2013-01-10 07:00:00,67.0,47.7,30.38,ENE,67,1.0,8.0,50,0.00,,,0.00,Weather View 32 v70,2013-01-10 12:00:00,
2013-01-10 07:10:00,67.0,47.7,30.39,ENE,67,0.0,8.0,50,0.00,,,0.00,Weather View 32 v70,2013-01-10 12:10:00,
2013-01-10 07:15:00,67.0,47.7,30.39,ENE,67,2.0,8.0,50,0.00,,,0.00,Weather View 32 v70,2013-01-10 12:15:00,
2013-01-10 07:20:00,67.0,47.7,30.39,ENE,67,2.0,7.0,50,0.00,,,0.00,Weather View 32 v70,2013-01-10 12:20:00,
2013-01-10 07:30:00,67.0,47.2,30.39,ENE,67,2.0,7.0,49,0.00,,,0.00,Weather View 32 v70,2013-01-10 12:30:00,
2013-01-10 07:35:00,67.0,47.2,30.39,ENE,67,2.0,6.0,49,0.00,,,0.00,Weather View 32 v70,2013-01-10 12:35:00,
2013-01-10 07:40:00,67.0,47.2,30.39,ENE,67,1.0,7.0,49,0.00,,,0.00,Weather View 32 v70,2013-01-10 12:40:00,
2013-01-10 07:45:00,67.0,47.2,30.39,ENE,67,3.0,7.0,49,0.00,,,0.00,Weather View 32 v70,2013-01-10 12:45:00,
2013-01-10 07:50:00,68.0,48.6,30.39,ENE,67,3.0,7.0,50,0.00,,,0.00,Weather View 32 v70,2013-01-10 12:50:00,
2013-01-10 07:55:00,68.0,48.6,30.39,East,90,7.0,9.0,50,0.00,,,0.00,Weather View 32 v70,2013-01-10 12:55:00,
2013-01-10 08:00:00,68.0,48.6,30.39,ENE,67,2.0,9.0,50,0.00,,,0.00,Weather View 32 v70,2013-01-10 13:00:00,
2013-01-10 08:05:00,68.0,49.1,30.39,ENE,67,3.0,9.0,51,0.00,,,0.00,Weather View 32 v70,2013-01-10 13:05:00,
2013-01-10 08:10:00,68.0,49.1,30.39,East,90,2.0,9.0,51,0.00,,,0.00,Weather View 32 v70,2013-01-10 13:10:00,
2013-01-10 08:15:00,68.0,49.7,30.40,ENE,67,6.0,10.0,52,0.00,,,0.00,Weather View 32 v70,2013-01-10 13:15:00,
2013-01-10 08:20:00,69.0,51.1,30.40,ENE,67,3.0,10.0,53,0.00,,,0.00,Weather View 32 v70,2013-01-10 13:20:00,
2013-01-10 08:25:00,69.0,51.6,30.40,ENE,67,6.0,10.0,54,0.00,,,0.00,Weather View 32 v70,2013-01-10 13:25:00,
2013-01-10 08:30:00,69.0,52.1,30.41,ENE,67,6.0,10.0,55,0.00,,,0.00,Weather View 32 v70,2013-01-10 13:30:00,
2013-01-10 08:35:00,69.0,53.1,30.41,ENE,67,9.0,10.0,57,0.00,,,0.00,Weather View 32 v70,2013-01-10 13:35:00,
2013-01-10 08:40:00,69.0,53.6,30.41,ENE,67,6.0,11.0,58,0.00,,,0.00,Weather View 32 v70,2013-01-10 13:40:00,
2013-01-10 08:50:00,69.0,54.0,30.41,ENE,67,3.0,11.0,59,0.00,,,0.00,Weather View 32 v70,2013-01-10 13:50:00,
2013-01-10 08:55:00,70.0,55.4,30.41,ENE,67,6.0,11.0,60,0.00,,,0.00,Weather View 32 v70,2013-01-10 13:55:00,
2013-01-10 09:00:00,70.0,55.9,30.41,East,90,6.0,12.0,61,0.00,,,0.00,Weather View 32 v70,2013-01-10 14:00:00,
2013-01-10 09:05:00,70.0,55.9,30.42,ENE,67,9.0,12.0,61,0.00,,,0.00,Weather View 32 v70,2013-01-10 14:05:00,
2013-01-10 09:10:00,70.0,56.8,30.42,East,90,2.0,12.0,63,0.00,,,0.00,Weather View 32 v70,2013-01-10 14:10:00,
2013-01-10 09:15:00,70.0,57.2,30.42,East,90,5.0,13.0,64,0.00,,,0.00,Weather View 32 v70,2013-01-10 14:15:00,
2013-01-10 09:20:00,71.0,59.0,30.42,ENE,67,8.0,13.0,66,0.00,,,0.00,Weather View 32 v70,2013-01-10 14:20:00,
2013-01-10 09:25:00,71.0,59.5,30.42,SSE,157,6.0,13.0,67,0.00,,,0.00,Weather View 32 v70,2013-01-10 14:25:00,
2013-01-10 09:30:00,71.0,59.5,30.42,ENE,67,6.0,15.0,67,0.00,,,0.00,Weather View 32 v70,2013-01-10 14:30:00,
2013-01-10 09:35:00,71.0,59.9,30.42,East,90,10.0,15.0,68,0.00,,,0.00,Weather View 32 v70,2013-01-10 14:35:00,
2013-01-10 09:40:00,71.0,60.3,30.42,East,90,9.0,15.0,69,0.00,,,0.00,Weather View 32 v70,2013-01-10 14:40:00,
2013-01-10 09:45:00,71.0,60.3,30.42,East,90,7.0,15.0,69,0.00,,,0.00,Weather View 32 v70,2013-01-10 14:45:00,
2013-01-10 09:55:00,71.0,61.1,30.42,East,90,6.0,15.0,71,0.00,,,0.00,Weather View 32 v70,2013-01-10 14:55:00,
2013-01-10 10:00:00,72.0,62.0,30.42,East,90,6.0,15.0,71,0.00,,,0.00,Weather View 32 v70,2013-01-10 15:00:00,
2013-01-10 10:05:00,71.0,61.1,30.41,East,90,10.0,15.0,71,0.00,,,0.00,Weather View 32 v70,2013-01-10 15:05:00,
2013-01-10 10:10:00,71.0,61.1,30.41,East,90,7.0,15.0,71,0.00,,,0.00,Weather View 32 v70,2013-01-10 15:10:00,
2013-01-10 10:15:00,72.0,62.8,30.41,ENE,67,8.0,15.0,73,0.00,,,0.00,Weather View 32 v70,2013-01-10 15:15:00,
2013-01-10 10:20:00,71.0,61.9,30.41,East,90,12.0,15.0,73,0.00,,,0.00,Weather View 32 v70,2013-01-10 15:20:00,
2013-01-10 10:30:00,72.0,62.8,30.41,ENE,67,8.0,16.0,73,0.00,,,0.00,Weather View 32 v70,2013-01-10 15:30:00,
2013-01-10 10:35:00,72.0,63.2,30.40,SSE,157,13.0,16.0,74,0.00,,,0.00,Weather View 32 v70,2013-01-10 15:35:00,
2013-01-10 10:40:00,72.0,63.2,30.40,ENE,67,5.0,16.0,74,0.00,,,0.00,Weather View 32 v70,2013-01-10 15:40:00,
2013-01-10 10:45:00,72.0,63.6,30.40,East,90,5.0,16.0,75,0.00,,,0.00,Weather View 32 v70,2013-01-10 15:45:00,
2013-01-10 10:50:00,73.0,65.0,30.40,East,90,5.0,17.0,76,0.00,,,0.00,Weather View 32 v70,2013-01-10 15:50:00,
2013-01-10 10:55:00,73.0,65.3,30.39,SSE,157,10.0,17.0,77,0.00,,,0.00,Weather View 32 v70,2013-01-10 15:55:00,
2013-01-10 11:00:00,73.0,65.7,30.39,East,90,8.0,17.0,78,0.00,,,0.00,Weather View 32 v70,2013-01-10 16:00:00,
2013-01-10 11:05:00,73.0,65.7,30.39,East,90,3.0,17.0,78,0.00,,,0.00,Weather View 32 v70,2013-01-10 16:05:00,
2013-01-10 11:10:00,74.0,67.0,30.39,SSE,157,10.0,17.0,79,0.00,,,0.00,Weather View 32 v70,2013-01-10 16:10:00,
2013-01-10 11:15:00,73.0,66.4,30.39,East,90,12.0,17.0,80,0.00,,,0.00,Weather View 32 v70,2013-01-10 16:15:00,
2013-01-10 11:20:00,74.0,67.4,30.39,East,90,10.0,17.0,80,0.00,,,0.00,Weather View 32 v70,2013-01-10 16:20:00,
2013-01-10 11:25:00,73.0,66.8,30.39,ENE,67,4.0,19.0,81,0.00,,,0.00,Weather View 32 v70,2013-01-10 16:25:00,
2013-01-10 11:30:00,74.0,68.1,30.39,SSE,157,9.0,19.0,82,0.00,,,0.00,Weather View 32 v70,2013-01-10 16:30:00,
2013-01-10 11:40:00,75.0,69.5,30.38,East,90,6.0,19.0,83,0.00,,,0.00,Weather View 32 v70,2013-01-10 16:40:00,
2013-01-10 11:45:00,75.0,69.5,30.38,East,90,7.0,19.0,83,0.00,,,0.00,Weather View 32 v70,2013-01-10 16:45:00,
2013-01-10 11:50:00,75.0,69.8,30.38,ENE,67,9.0,19.0,84,0.00,,,0.00,Weather View 32 v70,2013-01-10 16:50:00,
2013-01-10 11:55:00,75.0,69.8,30.38,East,90,11.0,19.0,84,0.00,,,0.00,Weather View 32 v70,2013-01-10 16:55:00,
2013-01-10 12:00:00,75.0,69.8,30.38,East,90,7.0,19.0,84,0.00,,,0.00,Weather View 32 v70,2013-01-10 17:00:00,
2013-01-10 12:05:00,76.0,71.1,30.37,East,90,13.0,19.0,85,0.00,,,0.00,Weather View 32 v70,2013-01-10 17:05:00,
2013-01-10 12:10:00,76.0,71.1,30.37,East,90,7.0,19.0,85,0.00,,,0.00,Weather View 32 v70,2013-01-10 17:10:00,
2013-01-10 12:15:00,76.0,71.1,30.37,East,90,15.0,19.0,85,0.00,,,0.00,Weather View 32 v70,2013-01-10 17:15:00,
2013-01-10 12:20:00,77.0,72.1,30.37,East,90,10.0,19.0,85,0.00,,,0.00,Weather View 32 v70,2013-01-10 17:20:00,
2013-01-10 12:25:00,77.0,72.1,30.37,SSE,157,6.0,16.0,85,0.00,,,0.00,Weather View 32 v70,2013-01-10 17:25:00,
2013-01-10 12:30:00,77.0,72.1,30.37,East,90,10.0,16.0,85,0.00,,,0.00,Weather View 32 v70,2013-01-10 17:30:00,
2013-01-10 12:35:00,77.0,72.1,30.37,East,90,13.0,16.0,85,0.00,,,0.00,Weather View 32 v70,2013-01-10 17:35:00,
2013-01-10 12:40:00,77.0,72.1,30.37,SSE,157,13.0,16.0,85,0.00,,,0.00,Weather View 32 v70,2013-01-10 17:40:00,
2013-01-10 12:45:00,77.0,72.1,30.37,East,90,8.0,16.0,85,0.00,,,0.00,Weather View 32 v70,2013-01-10 17:45:00,
2013-01-10 12:50:00,77.0,72.1,30.37,SSE,157,9.0,16.0,85,0.00,,,0.00,Weather View 32 v70,2013-01-10 17:50:00,
2013-01-10 13:00:00,77.0,72.1,30.37,East,90,5.0,16.0,85,0.00,,,0.00,Weather View 32 v70,2013-01-10 18:00:00,
2013-01-10 13:05:00,77.0,72.1,30.37,East,90,5.0,16.0,85,0.00,,,0.00,Weather View 32 v70,2013-01-10 18:05:00,
2013-01-10 13:10:00,78.0,73.1,30.37,SSE,157,10.0,16.0,85,0.00,,,0.00,Weather View 32 v70,2013-01-10 18:10:00,
2013-01-10 13:15:00,78.0,73.1,30.37,East,90,9.0,16.0,85,0.00,,,0.00,Weather View 32 v70,2013-01-10 18:15:00,
2013-01-10 13:20:00,78.0,73.1,30.37,East,90,4.0,16.0,85,0.00,,,0.00,Weather View 32 v70,2013-01-10 18:20:00,
2013-01-10 13:25:00,77.0,72.1,30.37,ENE,67,8.0,16.0,85,0.00,,,0.00,Weather View 32 v70,2013-01-10 18:25:00,
2013-01-10 13:30:00,78.0,73.1,30.37,ENE,67,6.0,15.0,85,0.00,,,0.00,Weather View 32 v70,2013-01-10 18:30:00,
2013-01-10 13:35:00,78.0,73.1,30.37,ENE,67,4.0,15.0,85,0.00,,,0.00,Weather View 32 v70,2013-01-10 18:35:00,
2013-01-10 13:40:00,79.0,74.1,30.37,East,90,7.0,15.0,85,0.00,,,0.00,Weather View 32 v70,2013-01-10 18:40:00,
2013-01-10 13:45:00,78.0,73.1,30.37,East,90,6.0,15.0,85,0.00,,,0.00,Weather View 32 v70,2013-01-10 18:45:00,
2013-01-10 13:50:00,79.0,74.1,30.37,South,180,2.0,15.0,85,0.00,,,0.00,Weather View 32 v70,2013-01-10 18:50:00,
2013-01-10 13:55:00,78.0,73.5,30.37,ENE,67,12.0,16.0,86,0.00,,,0.00,Weather View 32 v70,2013-01-10 18:55:00,
2013-01-10 14:00:00,78.0,73.5,30.37,East,90,12.0,16.0,86,0.00,,,0.00,Weather View 32 v70,2013-01-10 19:00:00,
2013-01-10 14:05:00,79.0,74.4,30.37,East,90,7.0,16.0,86,0.00,,,0.00,Weather View 32 v70,2013-01-10 19:05:00,
2013-01-10 14:10:00,78.0,73.5,30.37,ENE,67,8.0,16.0,86,0.00,,,0.00,Weather View 32 v70,2013-01-10 19:10:00,
2013-01-10 14:20:00,79.0,74.4,30.37,East,90,9.0,16.0,86,0.00,,,0.00,Weather View 32 v70,2013-01-10 19:20:00,
2013-01-10 14:25:00,78.0,73.5,30.37,East,90,6.0,16.0,86,0.00,,,0.00,Weather View 32 v70,2013-01-10 19:25:00,
2013-01-10 14:30:00,78.0,73.5,30.37,East,90,9.0,16.0,86,0.00,,,0.00,Weather View 32 v70,2013-01-10 19:30:00,
2013-01-10 14:35:00,79.0,74.4,30.37,East,90,8.0,16.0,86,0.00,,,0.00,Weather View 32 v70,2013-01-10 19:35:00,
2013-01-10 14:40:00,79.0,74.4,30.37,SSE,157,4.0,16.0,86,0.00,,,0.00,Weather View 32 v70,2013-01-10 19:40:00,
2013-01-10 14:45:00,79.0,74.4,30.38,SSE,157,7.0,16.0,86,0.00,,,0.00,Weather View 32 v70,2013-01-10 19:45:00,
2013-01-10 14:50:00,79.0,74.4,30.38,East,90,9.0,16.0,86,0.00,,,0.00,Weather View 32 v70,2013-01-10 19:50:00,
2013-01-10 14:55:00,79.0,74.4,30.38,SSE,157,3.0,16.0,86,0.00,,,0.00,Weather View 32 v70,2013-01-10 19:55:00,
2013-01-10 15:00:00,78.0,73.5,30.38,East,90,5.0,13.0,86,0.00,,,0.00,Weather View 32 v70,2013-01-10 20:00:00,
2013-01-10 15:05:00,78.0,73.5,30.38,East,90,4.0,13.0,86,0.00,,,0.00,Weather View 32 v70,2013-01-10 20:05:00,
2013-01-10 15:10:00,79.0,74.4,30.38,SSE,157,4.0,13.0,86,0.00,,,0.00,Weather View 32 v70,2013-01-10 20:10:00,
2013-01-10 15:15:00,79.0,74.4,30.38,ENE,67,8.0,13.0,86,0.00,,,0.00,Weather View 32 v70,2013-01-10 20:15:00,
2013-01-10 15:25:00,79.0,74.4,30.38,ENE,67,5.0,13.0,86,0.00,,,0.00,Weather View 32 v70,2013-01-10 20:25:00,
2013-01-10 15:30:00,78.0,73.5,30.38,ENE,67,0.0,12.0,86,0.00,,,0.00,Weather View 32 v70,2013-01-10 20:30:00,
2013-01-10 15:35:00,79.0,74.4,30.37,ENE,67,10.0,12.0,86,0.00,,,0.00,Weather View 32 v70,2013-01-10 20:35:00,
2013-01-10 15:40:00,79.0,74.4,30.38,SSE,157,1.0,12.0,86,0.00,,,0.00,Weather View 32 v70,2013-01-10 20:40:00,
2013-01-10 15:50:00,79.0,74.4,30.38,East,90,4.0,12.0,86,0.00,,,0.00,Weather View 32 v70,2013-01-10 20:50:00,
2013-01-10 15:55:00,79.0,74.4,30.38,ENE,67,6.0,12.0,86,0.00,,,0.00,Weather View 32 v70,2013-01-10 20:55:00,
2013-01-10 16:00:00,79.0,74.4,30.38,ENE,67,8.0,12.0,86,0.00,,,0.00,Weather View 32 v70,2013-01-10 21:00:00,
2013-01-10 16:05:00,79.0,74.4,30.38,East,90,5.0,12.0,86,0.00,,,0.00,Weather View 32 v70,2013-01-10 21:05:00,
2013-01-10 16:10:00,79.0,74.4,30.38,East,90,10.0,12.0,86,0.00,,,0.00,Weather View 32 v70,2013-01-10 21:10:00,
2013-01-10 16:15:00,79.0,74.4,30.38,ENE,67,5.0,12.0,86,0.00,,,0.00,Weather View 32 v70,2013-01-10 21:15:00,
2013-01-10 16:20:00,79.0,74.4,30.38,East,90,7.0,10.0,86,0.00,,,0.00,Weather View 32 v70,2013-01-10 21:20:00,
2013-01-10 16:25:00,79.0,74.4,30.38,SSE,157,3.0,10.0,86,0.00,,,0.00,Weather View 32 v70,2013-01-10 21:25:00,
2013-01-10 16:35:00,79.0,74.4,30.38,East,90,2.0,10.0,86,0.00,,,0.00,Weather View 32 v70,2013-01-10 21:35:00,
2013-01-10 16:40:00,79.0,74.4,30.38,East,90,4.0,10.0,86,0.00,,,0.00,Weather View 32 v70,2013-01-10 21:40:00,
2013-01-10 16:45:00,78.0,73.5,30.38,SSE,157,6.0,10.0,86,0.00,,,0.00,Weather View 32 v70,2013-01-10 21:45:00,
2013-01-10 16:50:00,77.0,72.5,30.37,East,90,3.0,10.0,86,0.00,,,0.00,Weather View 32 v70,2013-01-10 21:50:00,
2013-01-10 17:00:00,77.0,72.5,30.37,ENE,67,4.0,10.0,86,0.00,,,0.00,Weather View 32 v70,2013-01-10 22:00:00,
2013-01-10 17:05:00,76.0,71.1,30.37,SSE,157,6.0,10.0,85,0.00,,,0.00,Weather View 32 v70,2013-01-10 22:05:00,
2013-01-10 17:10:00,76.0,71.1,30.37,SSE,157,6.0,10.0,85,0.00,,,0.00,Weather View 32 v70,2013-01-10 22:10:00,
2013-01-10 17:15:00,76.0,71.1,30.36,East,90,2.0,9.0,85,0.00,,,0.00,Weather View 32 v70,2013-01-10 22:15:00,
2013-01-10 17:20:00,76.0,71.1,30.36,East,90,0.0,9.0,85,0.00,,,0.00,Weather View 32 v70,2013-01-10 22:20:00,
2013-01-10 17:25:00,76.0,71.1,30.36,ENE,67,6.0,9.0,85,0.00,,,0.00,Weather View 32 v70,2013-01-10 22:25:00,
2013-01-10 17:35:00,76.0,71.1,30.36,East,90,9.0,10.0,85,0.00,,,0.00,Weather View 32 v70,2013-01-10 22:35:00,
2013-01-10 17:40:00,75.0,69.8,30.36,SSE,157,4.0,10.0,84,0.00,,,0.00,Weather View 32 v70,2013-01-10 22:40:00,
2013-01-10 17:45:00,75.0,69.8,30.36,East,90,5.0,10.0,84,0.00,,,0.00,Weather View 32 v70,2013-01-10 22:45:00,
2013-01-10 17:50:00,75.0,69.8,30.35,East,90,1.0,10.0,84,0.00,,,0.00,Weather View 32 v70,2013-01-10 22:50:00,
2013-01-10 17:55:00,75.0,69.8,30.35,East,90,7.0,10.0,84,0.00,,,0.00,Weather View 32 v70,2013-01-10 22:55:00,
2013-01-10 18:00:00,75.0,69.8,30.35,East,90,3.0,10.0,84,0.00,,,0.00,Weather View 32 v70,2013-01-10 23:00:00,
2013-01-10 18:05:00,75.0,69.8,30.36,East,90,3.0,10.0,84,0.00,,,0.00,Weather View 32 v70,2013-01-10 23:05:00,
2013-01-10 18:10:00,75.0,69.8,30.35,SSE,157,6.0,10.0,84,0.00,,,0.00,Weather View 32 v70,2013-01-10 23:10:00,
2013-01-10 18:20:00,75.0,69.8,30.35,East,90,1.0,10.0,84,0.00,,,0.00,Weather View 32 v70,2013-01-10 23:20:00,
2013-01-10 18:25:00,75.0,69.8,30.35,East,90,1.0,10.0,84,0.00,,,0.00,Weather View 32 v70,2013-01-10 23:25:00,
2013-01-10 18:30:00,74.0,68.8,30.35,East,90,6.0,10.0,84,0.00,,,0.00,Weather View 32 v70,2013-01-10 23:30:00,
2013-01-10 18:35:00,74.0,68.8,30.35,East,90,6.0,10.0,84,0.00,,,0.00,Weather View 32 v70,2013-01-10 23:35:00,
2013-01-10 18:40:00,75.0,69.8,30.35,SSE,157,2.0,10.0,84,0.00,,,0.00,Weather View 32 v70,2013-01-10 23:40:00,
2013-01-10 18:45:00,74.0,68.8,30.35,East,90,6.0,10.0,84,0.00,,,0.00,Weather View 32 v70,2013-01-10 23:45:00,
2013-01-10 18:50:00,74.0,68.8,30.35,East,90,8.0,10.0,84,0.00,,,0.00,Weather View 32 v70,2013-01-10 23:50:00,
2013-01-10 18:55:00,74.0,68.8,30.35,SSE,157,1.0,10.0,84,0.00,,,0.00,Weather View 32 v70,2013-01-10 23:55:00,
2013-01-10 19:00:00,74.0,68.8,30.35,ENE,67,5.0,10.0,84,0.00,,,0.00,Weather View 32 v70,2013-01-11 00:00:00,
2013-01-10 19:05:00,73.0,67.9,30.35,East,90,4.0,10.0,84,0.00,,,0.00,Weather View 32 v70,2013-01-11 00:05:00,
2013-01-10 19:10:00,73.0,67.9,30.35,East,90,3.0,10.0,84,0.00,,,0.00,Weather View 32 v70,2013-01-11 00:10:00,
2013-01-10 19:15:00,73.0,67.9,30.35,ENE,67,6.0,10.0,84,0.00,,,0.00,Weather View 32 v70,2013-01-11 00:15:00,
2013-01-10 19:20:00,73.0,67.9,30.35,East,90,6.0,10.0,84,0.00,,,0.00,Weather View 32 v70,2013-01-11 00:20:00,
2013-01-10 19:25:00,74.0,68.8,30.35,East,90,6.0,10.0,84,0.00,,,0.00,Weather View 32 v70,2013-01-11 00:25:00,
2013-01-10 19:30:00,74.0,68.8,30.35,East,90,0.0,10.0,84,0.00,,,0.00,Weather View 32 v70,2013-01-11 00:30:00,
2013-01-10 19:35:00,74.0,68.8,30.35,East,90,2.0,11.0,84,0.00,,,0.00,Weather View 32 v70,2013-01-11 00:35:00,
2013-01-10 19:45:00,74.0,68.8,30.36,ENE,67,2.0,11.0,84,0.00,,,0.00,Weather View 32 v70,2013-01-11 00:45:00,
2013-01-10 19:50:00,74.0,68.8,30.36,East,90,7.0,11.0,84,0.00,,,0.00,Weather View 32 v70,2013-01-11 00:50:00,
2013-01-10 19:55:00,74.0,68.8,30.37,East,90,9.0,12.0,84,0.00,,,0.00,Weather View 32 v70,2013-01-11 00:55:00,
2013-01-10 20:00:00,73.0,67.9,30.37,SSE,157,3.0,12.0,84,0.00,,,0.00,Weather View 32 v70,2013-01-11 01:00:00,
2013-01-10 20:05:00,73.0,67.9,30.37,East,90,9.0,12.0,84,0.00,,,0.00,Weather View 32 v70,2013-01-11 01:05:00,
2013-01-10 20:10:00,73.0,67.9,30.36,ENE,67,8.0,13.0,84,0.00,,,0.00,Weather View 32 v70,2013-01-11 01:10:00,
2013-01-10 20:15:00,73.0,67.9,30.36,East,90,7.0,13.0,84,0.00,,,0.00,Weather View 32 v70,2013-01-11 01:15:00,
2013-01-10 20:20:00,72.0,66.9,30.36,ENE,67,6.0,13.0,84,0.00,,,0.00,Weather View 32 v70,2013-01-11 01:20:00,
2013-01-10 20:25:00,72.0,66.9,30.37,SSE,157,4.0,13.0,84,0.00,,,0.00,Weather View 32 v70,2013-01-11 01:25:00,
2013-01-10 20:30:00,72.0,66.5,30.37,East,90,4.0,13.0,83,0.00,,,0.00,Weather View 32 v70,2013-01-11 01:30:00,
2013-01-10 20:40:00,72.0,66.5,30.37,East,90,6.0,13.0,83,0.00,,,0.00,Weather View 32 v70,2013-01-11 01:40:00,
2013-01-10 20:45:00,72.0,66.2,30.37,SSE,157,4.0,13.0,82,0.00,,,0.00,Weather View 32 v70,2013-01-11 01:45:00,
2013-01-10 20:50:00,72.0,66.2,30.37,ENE,67,0.0,13.0,82,0.00,,,0.00,Weather View 32 v70,2013-01-11 01:50:00,
2013-01-10 20:55:00,72.0,66.2,30.37,East,90,3.0,13.0,82,0.00,,,0.00,Weather View 32 v70,2013-01-11 01:55:00,
2013-01-10 21:00:00,72.0,66.2,30.37,East,90,3.0,13.0,82,0.00,,,0.00,Weather View 32 v70,2013-01-11 02:00:00,
2013-01-10 21:05:00,72.0,66.2,30.37,East,90,7.0,13.0,82,0.00,,,0.00,Weather View 32 v70,2013-01-11 02:05:00,
2013-01-10 21:10:00,71.0,65.2,30.38,East,90,7.0,13.0,82,0.00,,,0.00,Weather View 32 v70,2013-01-11 02:10:00,
2013-01-10 21:15:00,72.0,66.2,30.38,East,90,1.0,12.0,82,0.00,,,0.00,Weather View 32 v70,2013-01-11 02:15:00,
2013-01-10 21:20:00,72.0,66.2,30.38,ENE,67,3.0,12.0,82,0.00,,,0.00,Weather View 32 v70,2013-01-11 02:20:00,
2013-01-10 21:25:00,71.0,65.2,30.38,ENE,67,2.0,12.0,82,0.00,,,0.00,Weather View 32 v70,2013-01-11 02:25:00,
2013-01-10 21:35:00,71.0,65.2,30.38,SSE,157,1.0,14.0,82,0.00,,,0.00,Weather View 32 v70,2013-01-11 02:35:00,
2013-01-10 21:40:00,71.0,65.2,30.38,East,90,7.0,14.0,82,0.00,,,0.00,Weather View 32 v70,2013-01-11 02:40:00,
2013-01-10 21:45:00,71.0,65.2,30.38,East,90,2.0,14.0,82,0.00,,,0.00,Weather View 32 v70,2013-01-11 02:45:00,
2013-01-10 21:50:00,71.0,65.2,30.38,East,90,10.0,14.0,82,0.00,,,0.00,Weather View 32 v70,2013-01-11 02:50:00,
2013-01-10 21:55:00,71.0,65.2,30.38,East,90,6.0,14.0,82,0.00,,,0.00,Weather View 32 v70,2013-01-11 02:55:00,
2013-01-10 22:00:00,71.0,65.2,30.38,ENE,67,3.0,14.0,82,0.00,,,0.00,Weather View 32 v70,2013-01-11 03:00:00,
2013-01-10 22:05:00,70.0,64.2,30.38,East,90,5.0,14.0,82,0.00,,,0.00,Weather View 32 v70,2013-01-11 03:05:00,
2013-01-10 22:10:00,70.0,64.2,30.38,East,90,7.0,14.0,82,0.00,,,0.00,Weather View 32 v70,2013-01-11 03:10:00,
2013-01-10 22:15:00,70.0,64.2,30.38,East,90,7.0,14.0,82,0.00,,,0.00,Weather View 32 v70,2013-01-11 03:15:00,
2013-01-10 22:20:00,70.0,63.9,30.38,East,90,3.0,14.0,81,0.00,,,0.00,Weather View 32 v70,2013-01-11 03:20:00,
2013-01-10 22:25:00,70.0,63.9,30.38,East,90,7.0,14.0,81,0.00,,,0.00,Weather View 32 v70,2013-01-11 03:25:00,
2013-01-10 22:30:00,70.0,63.5,30.38,East,90,3.0,14.0,80,0.00,,,0.00,Weather View 32 v70,2013-01-11 03:30:00,
2013-01-10 22:35:00,70.0,63.5,30.38,East,90,4.0,13.0,80,0.00,,,0.00,Weather View 32 v70,2013-01-11 03:35:00,
2013-01-10 22:40:00,69.0,62.6,30.38,East,90,3.0,13.0,80,0.00,,,0.00,Weather View 32 v70,2013-01-11 03:40:00,
2013-01-10 22:45:00,70.0,63.9,30.39,SSE,157,5.0,13.0,81,0.00,,,0.00,Weather View 32 v70,2013-01-11 03:45:00,
2013-01-10 22:50:00,70.0,63.9,30.39,ENE,67,0.0,13.0,81,0.00,,,0.00,Weather View 32 v70,2013-01-11 03:50:00,
2013-01-10 22:55:00,69.0,62.6,30.39,East,90,7.0,12.0,80,0.00,,,0.00,Weather View 32 v70,2013-01-11 03:55:00,
2013-01-10 23:00:00,69.0,62.6,30.39,East,90,4.0,12.0,80,0.00,,,0.00,Weather View 32 v70,2013-01-11 04:00:00,
2013-01-10 23:05:00,69.0,62.6,30.38,ENE,67,3.0,12.0,80,0.00,,,0.00,Weather View 32 v70,2013-01-11 04:05:00,
2013-01-10 23:10:00,69.0,62.6,30.38,East,90,7.0,10.0,80,0.00,,,0.00,Weather View 32 v70,2013-01-11 04:10:00,
2013-01-10 23:20:00,69.0,62.2,30.39,East,90,6.0,10.0,79,0.00,,,0.00,Weather View 32 v70,2013-01-11 04:20:00,
2013-01-10 23:29:00,69.0,62.2,30.39,East,90,3.0,10.0,79,0.00,,,0.00,Weather View 32 v70,2013-01-11 04:29:00,
2013-01-10 23:35:00,69.0,62.2,30.38,East,90,7.0,9.0,79,0.00,,,0.00,Weather View 32 v70,2013-01-11 04:35:00,
2013-01-10 23:40:00,68.0,61.2,30.38,East,90,8.0,9.0,79,0.00,,,0.00,Weather View 32 v70,2013-01-11 04:40:00,
2013-01-10 23:45:00,68.0,61.2,30.38,East,90,3.0,9.0,79,0.00,,,0.00,Weather View 32 v70,2013-01-11 04:45:00,
2013-01-10 23:50:00,68.0,60.9,30.38,East,90,2.0,9.0,78,0.00,,,0.00,Weather View 32 v70,2013-01-11 04:50:00,
2013-01-10 23:55:00,68.0,60.9,30.38,East,90,1.0,9.0,78,0.00,,,0.00,Weather View 32 v70,2013-01-11 04:55:00,